Location: Daybis Observatory
(33.4273°N, 88.8061°W)
Time: 22:34:58
(UTC-05:00)

Daily predictions for brighter satellites

Satellite Brightness Start Highest point End
(mag) Time Altitude Azimuth Time Altitude Azimuth Time Altitude Azimuth
Meteor 1-24 Rocket 4.3 20:30:02 10° SSW 20:35:38 63° W 20:41:03 10° N
Cosmos 1777 Rocket 4.3 20:31:52 10° S 20:36:52 45° ESE 20:41:52 10° NNE
GPS 2-04 Rocket1 3.1 20:32:50 10° W 20:37:10 62° SSW 20:41:27 10° ESE
Cosmos 1328 Rocket 4.3 20:34:04 10° NNE 20:38:11 35° E 20:42:14 10° SE
DELTA 2 R/B (1) 4.5 20:34:03 10° WNW 20:39:22 46° N 20:44:42 10° E
Cosmos 1674 4.2 20:38:06 10° SE 20:40:55 20° E 20:43:45 10° NE
ATLAS CENTAUR R/B 1.6 20:42:27 10° NNW 20:46:55 77° WSW 20:50:57 10° SSE
Cosmos 1743 Rocket 3.6 20:45:20 10° S 20:49:47 78° E 20:54:15 10° N
Cosmos 1939 Rocket 4.0 20:46:42 10° SE 20:50:02 27° ENE 20:53:20 10° NNE
Cosmos 1833 4.4 20:44:46 10° S 20:50:17 52° ESE 20:55:48 10° NNE
Cosmos 1655 Rocket 4.4 20:46:14 10° SSW 20:52:25 69° W 20:58:37 10° N
Cosmos 332 Rocket 4.0 20:47:42 10° NNW 20:52:32 73° WSW 20:57:22 10° S
S3M 4.1 20:46:32 10° N 20:52:34 61° E 20:58:37 10° SSE
Cosmos 2221 4.0 20:48:43 10° NNW 20:52:40 37° W 20:56:38 10° SSW
Cosmos 1500 Rocket 3.6 20:51:33 10° S 20:55:49 59° E 21:00:08 10° NNE
Cosmos 2228 Rocket 3.1 20:51:28 10° N 20:55:57 79° E 21:00:29 10° S
H-2A R/B 3.3 20:54:33 10° S 20:58:21 57° W 21:02:07 10° NNW
Cosmos 1437 Rocket 3.4 20:59:04 10° N 21:02:37 36° E 21:05:27 15° SE
CZ-2C R/B 1.9 20:59:13 11° SSE 21:02:42 54° ENE 21:06:35 10° N
Cosmos 1538 Rocket 4.1 21:05:55 10° NNW 21:11:17 90° WSW 21:16:31 11° SSE
Delta 2 Rocket 3.0 21:07:40 10° W 21:11:20 75° NNW 21:14:45 10° ENE
deb Chang Zheng 4 3.5 21:07:21 10° NNE 21:11:42 82° ESE 21:16:02 10° S
OAO 2 Rocket 3.9 21:07:33 10° SW 21:12:30 41° SSE 21:17:29 10° E
Meteor 1-21 Rocket 4.3 21:08:24 10° S 21:13:56 79° W 21:19:28 10° N
CZ-4B R/B 4.5 21:10:29 10° NE 21:14:57 28° E 21:17:54 17° SE
USA 186 4.0 21:16:59 10° SW 21:18:31 15° W 21:20:04 10° NW
USA 229 DEB 4.4 21:15:30 10° SW 21:22:17 59° WNW 21:29:10 10° NNE
USA 229 4.4 21:15:35 10° SW 21:22:23 59° WNW 21:29:17 10° NNE
Cosmos 1328 4.2 21:21:48 20° SSE 21:24:08 41° E 21:27:51 10° NNE
ALOS 4.2 21:23:36 10° SSW 21:27:31 27° W 21:31:28 10° NW
Cosmos 371 Rocket 4.2 21:23:24 10° NNW 21:27:59 46° WSW 21:32:33 10° S
Cosmos 1515 Rocket 3.7 21:23:42 10° N 21:28:08 75° W 21:32:05 13° S
Cosmos 2151 2.9 21:26:46 15° S 21:30:11 63° E 21:34:21 10° NNE
Cosmos 773 Rocket 3.9 21:26:10 10° NNW 21:31:22 78° ENE 21:34:56 21° SSE
Nimbus 7 Rocket 4.4 21:26:49 10° NNE 21:32:41 87° WNW 21:38:33 10° SSW
Sich 1 4.2 21:34:25 23° ESE 21:35:08 24° E 21:38:40 10° NE
Cosmos 1633 Rocket 4.2 21:36:53 23° E 21:37:25 24° E 21:40:55 10° NE
Meteor 2-20 Rocket 4.5 21:33:24 10° S 21:39:34 85° W 21:45:44 10° N
Cosmos 2219 3.1 21:34:02 10° SSW 21:39:45 74° ESE 21:45:29 10° NNE
Tiangong 1 0.9 21:37:01 10° WSW 21:40:07 85° NNW 21:42:38 14° ENE
H-2A R/B 2.4 21:38:45 10° SW 21:39:37 15° SW 21:39:37 15° SW
NOSS 3-1 (A) 3.5 21:36:26 10° S 21:41:56 49° ESE 21:47:54 10° NE
Cosmos 1726 3.8 21:40:15 10° NNE 21:43:03 19° ENE 21:43:05 19° ENE
Cosmos 2266 Rocket 4.2 21:37:24 10° S 21:43:43 74° W 21:49:58 10° N
SPOT 5 2.6 21:43:57 27° SSE 21:46:23 82° ENE 21:51:08 10° N
SL-14 R/B 3.9 21:48:33 35° ESE 21:48:55 36° E 21:52:35 10° NNE
Cosmos 1151 Rocket 3.1 21:45:04 10° N 21:49:22 75° W 21:51:50 25° S
Cosmos 2315 Rocket 4.0 21:44:17 10° N 21:50:26 62° E 21:53:45 28° SSE
Cosmos 2058 2.8 21:49:04 34° SSE 21:50:42 65° E 21:54:45 10° NNE
Cosmos 2237 Rocket 4.4 21:50:00 10° NE 21:51:49 11° NE 21:53:38 10° ENE
Cosmos 1805 Rocket 3.5 21:50:01 31° SSE 21:52:02 65° E 21:56:26 10° NNE
Cosmos 2322 3.7 21:47:04 10° NNW 21:52:48 79° ENE 21:55:37 31° SSE
Cosmos 2322 Rocket 3.7 21:50:08 10° NW 21:54:56 30° WSW 21:59:45 10° SSW
PSLV R/B 3.2 21:54:36 56° SSW 21:55:07 75° WSW 21:58:11 10° NNW
Envisat 3.5 21:56:36 19° S 22:00:06 54° W 22:05:05 10° NNW
Cosmos 1437 4.1 21:58:21 17° SW 22:00:32 38° W 22:03:38 10° N
ATLAS 2AS CENTAUR R/B 3.6 22:03:26 29° ESE 22:04:19 30° ESE 22:10:51 10° NE
Cosmos 2360 Rocket 2.2 21:59:05 10° NNW 22:04:45 79° WSW 22:07:20 34° S
SL-16 R/B 3.9 22:01:06 10° NW 22:05:43 26° WSW 22:10:19 10° SSW
Cosmos 1244 Rocket 4.4 22:01:59 23° S 22:06:11 79° E 22:12:29 10° N
Cosmos 304 Rocket 3.9 22:03:30 10° NNW 22:08:18 71° WSW 22:10:03 38° S
MetOp-B 4.1 22:05:52 31° S 22:08:29 79° WSW 22:13:52 10° NNW
H-2A R/B 3.8 22:05:11 13° SSW 22:08:30 30° W 22:12:30 10° NW
Meteor 1-4 Rocket 4.0 22:07:13 10° NNE 22:09:49 25° ENE 22:09:49 25° ENE
Cosmos 1666 Rocket 3.4 22:13:17 50° S 22:14:24 86° E 22:18:50 10° N
Cosmos 1707 Rocket 3.4 22:10:31 10° N 22:14:52 73° E 22:15:29 61° SE
SL-23 DEB 4.2 22:11:34 10° NW 22:15:47 44° NE 22:16:05 43° NE
Cosmos 2112 Rocket 4.0 22:11:15 10° NNW 22:16:30 78° WSW 22:18:17 42° S
Cosmos 2298 Rocket 4.0 22:14:15 21° SSW 22:17:50 82° WNW 22:23:11 10° NNE
Cosmos 1626 4.4 22:20:38 15° NE 22:20:38 15° NE 22:21:40 10° NE
Meteor 1-11 4.3 22:16:30 25° SSW 22:20:04 79° W 22:25:50 10° N
Cosmos 1937 Rocket 3.5 22:20:01 51° SSE 22:21:02 62° ESE 22:26:12 10° NNE
Meteor 2-11 Rocket 4.3 22:15:06 10° N 22:21:16 78° E 22:23:24 43° SSE
Cosmos 220 Rocket 4.2 22:22:00 54° E 22:22:00 54° E 22:25:58 10° NNE
Landsat 7 4.2 22:22:40 45° E 22:23:06 47° ENE 22:27:39 10° N
SL-08 R/B 4.4 22:21:45 42° SSE 22:23:50 67° E 22:30:03 10° NNE
Cosmos 1745 Rocket 4.1 22:22:21 44° SE 22:23:59 56° E 22:30:02 10° NNE
DELTA 2 R/B (1) 3.5 22:20:37 10° WNW 22:26:12 87° NNE 22:27:37 52° ESE
Cosmos 2227 Rocket 2.5 22:27:04 44° ESE 22:27:04 44° ESE 22:32:19 10° NE
Cosmos 1470 Rocket 4.3 22:28:46 38° ENE 22:28:46 38° ENE 22:32:01 10° NNE
NOSS 3-1 (C) 4.1 22:23:30 10° SW 22:29:08 53° NW 22:35:20 10° NNE
Cosmos 1933 Rocket 4.3 22:29:58 39° ENE 22:29:58 39° ENE 22:33:28 10° NNE
Cosmos 292 Rocket 4.3 22:26:52 10° N 22:31:24 42° ENE 22:31:27 42° ENE
Cosmos 1300 2.9 22:28:10 10° NNW 22:31:57 62° W 22:31:57 62° W
Cosmos 990 Rocket 4.0 22:33:45 55° E 22:33:45 55° E 22:38:37 10° NNE
YAOGAN 6 3.9 22:35:21 33° WSW 22:35:34 33° W 22:38:54 10° NNW
Terra 2.2 22:39:02 47° ENE 22:39:02 47° ENE 22:43:31 10° N
H-2A R/B 2.2 22:39:08 55° E 22:39:40 57° ENE 22:44:58 10° N
Cosmos 2333 Rocket 3.1 22:37:16 10° N 22:42:31 36° ENE 22:43:13 34° E
SL-16 R/B 4.3 22:41:45 10° NNE 22:44:37 14° NE 22:45:52 13° ENE
NOSS 0 Rocket 4.3 22:42:27 10° N 22:48:24 48° ENE 22:49:18 45° E
Cosmos 1386 Rocket 4.3 22:50:12 63° SE 22:50:49 68° E 22:56:47 10° NNE
SPOT 1/Viking Rocket 4.4 22:50:47 35° SW 22:52:02 40° W 22:56:52 10° NNW
Cosmos 2297 Rocket 2.6 22:55:00 48° ENE 22:55:00 48° ENE 22:59:40 10° NNE
COSMOS 2428 2.8 22:48:37 10° NNW 22:54:14 63° WSW 22:55:02 57° SSW
Cosmos 1455 3.8 22:51:05 10° N 22:53:11 28° NNE 22:53:11 28° NNE
OAO 2 Rocket 3.3 22:51:52 10° WSW 22:57:12 88° N 22:57:14 88° N
ARGOS 4.0 22:59:48 37° SW 23:00:56 42° W 23:06:02 10° NNW
Cosmos 2242 Rocket 4.1 22:57:30 10° NNW 23:01:39 54° W 23:01:39 54° W
Cosmos 2219 Rocket 2.0 23:00:51 10° NNW 23:06:28 78° ENE 23:06:30 78° ENE
Cosmos 1125 Rocket 4.4 23:10:01 37° ENE 23:10:01 37° ENE 23:13:35 10° NNE
CARTOSAT-1 4.2 23:11:16 52° NW 23:11:16 52° NW 23:14:42 10° NNW
SeaSat 1 4.2 23:12:26 21° ENE 23:12:34 21° NE 23:16:13 10° N
Cosmos 1862 Rocket 4.4 23:09:07 10° N 23:12:14 47° N 23:12:14 47° N
Tiangong 1 4.4 23:14:39 10° WNW 23:14:50 11° WNW 23:14:50 11° WNW
Cosmos 1980 3.7 23:18:04 10° NNW 23:23:22 73° NNE 23:23:22 73° NNE
Lacrosse 4 Rocket 3.7 23:22:15 10° N 23:24:39 18° NE 23:24:39 18° NE
Cosmos 2237 Rocket 2.3 23:30:53 10° NNW 23:36:00 73° NNW 23:36:00 73° NNW
COSMOS 2455 3.4 23:44:01 10° NNW 23:49:34 50° NE 23:49:34 50° NE
